Terminal Aerodrome Forecast
Issued by NWS

Home | Current Version | Previous Version | Text Only | Print | Product List | Glossary On
Versions: 1 2 3 4 5 6 7 8 9 10 11 12 13 14 15 16 17 18 19 20 21 22 23 24 25 26 27 28 29 30 31 32 33 34
000
FTUS41 KBUF 240900 AAA
TAFIAG
TAF AMD
KIAG 240905Z 2409/2506 32006KT P6SM SKC
     FM242300 VRB03KT P6SM BKN120
     FM250500 13004KT P6SM BKN100=

USA.gov is the U.S. government's official web portal to all federal, state and local government web resources and services.